GFSSGP_250_rhum_000.txt.gz
RH
7 7 4 5 7 15 12 11 14 16 16 19 20 20 20 22 33 37 50 63 94 88 77 81 100 100 94 100 65 100 89 100 100 99 99 93 45 65 100 62 20 18 30 50 63 50 28 14 19
9 10 9 27 17 17 30 28 24 22 22 22 20 22 32 33 34 44 45 62 87 79 82 79 94 100 97 94 97 94 87 72 48 57 55 53 89 76 22 25 14 20 50 59 46 37 26 20 28
14 11 8 8 11 19 39 50 46 26 21 19 21 24 29 32 34 70 87 82 86 97 96 99 95 99 72 53 67 75 67 43 92 97 99 84 58 21 24 16 13 50 62 31 38 34 26 26 29
11 15 13 9 14 27 41 41 28 34 28 33 34 40 45 40 54 59 97 100 100 95 56 100 100 98 65 42 74 37 80 100 100 82 64 36 18 16 6 15 38 75 51 31 31 33 25 39 30
15 17 25 43 48 34 34 48 60 69 58 58 40 31 40 43 45 68 68 79 96 96 100 100 100 98 89 95 100 100 91 78 64 38 22 20 32 15 15 27 59 66 36 24 32 40 41 31 26
36 72 62 55 52 38 34 46 64 85 72 57 28 35 42 70 66 75 77 74 78 80 75 81 84 85 83 87 94 81 60 36 23 27 23 38 26 21 28 41 80 52 24 32 46 52 42 36 33
32 54 74 87 69 76 88 99 95 77 50 31 24 31 33 50 67 76 67 56 52 63 64 85 84 86 96 95 73 49 31 28 20 30 52 45 26 19 27 45 84 56 28 44 88 70 94 77 60
19 24 30 43 91 99 95 64 52 34 42 62 55 61 55 39 53 57 66 92 89 100 100 98 96 72 52 28 27 33 33 37 43 28 19 25 20 10 32 62 89 64 39 35 71 69 61 64 46
45 47 49 45 44 31 23 25 20 17 14 13 45 74 81 78 68 65 66 34 18 17 25 20 18 20 17 19 15 21 31 21 29 26 23 26 31 7 33 79 100 70 46 76 67 72 73 51 44
77 63 58 38 39 34 34 40 39 35 37 37 40 38 8 7 12 13 14 14 13 11 11 10 8 8 7 11 11 34 25 13 14 15 17 15 36 52 44 76 93 86 70 60 41 66 55 50 56
29 48 23 23 28 39 26 32 53 61 52 23 11 7 6 7 11 9 10 10 10 10 9 9 9 10 8 16 40 44 27 8 22 26 41 37 41 51 56 44 87 100 100 84 62 75 73 69 74
11 24 15 15 56 72 38 26 55 50 33 32 43 39 16 11 10 10 10 10 9 9 8 9 9 9 9 9 11 8 37 32 27 25 30 29 66 87 76 59 53 54 56 70 75 83 91 100 97
11 9 10 13 17 43 79 57 31 70 66 57 60 52 45 14 11 10 9 8 9 8 8 8 7 8 9 8 9 50 24 21 18 20 29 33 47 80 67 45 36 41 63 71 65 71 100 100 100
7 9 8 10 14 14 19 24 23 16 11 9 5 6 9 8 8 8 8 8 8 8 8 9 16 34 9 28 35 14 14 11 18 33 24 16 38 11 36 37 16 11 10 11 11 10 11 12 16
12 6 6 7 7 8 9 10 9 8 9 7 8 9 9 8 8 8 8 8 9 12 12 12 8 5 4 25 14 8 9 12 16 16 14 14 21 19 38 42 14 12 13 13 13 14 14 15 15
24 10 8 7 8 11 11 9 8 9 8 8 7 8 8 9 9 9 9 11 11 10 11 10 8 8 21 15 15 7 9 18 16 24 19 25 19 16 19 25 16 15 15 15 16 16 19 17 17
22 21 12 12 11 11 11 9 9 8 8 8 9 10 11 11 12 13 14 14 14 16 18 18 15 20 39 26 35 25 24 30 33 33 32 31 30 32 33 32 31 28 23 23 24 20 22 24 22
17 21 21 18 13 12 11 10 9 9 10 11 14 15 16 18 19 19 20 21 24 24 25 25 26 30 33 30 32 36 35 36 36 36 36 35 33 33 33 34 37 37 37 33 34 33 28 27 26
19 17 19 18 24 20 14 14 16 15 14 15 20 22 22 23 25 27 27 26 26 28 30 32 33 33 33 33 34 35 35 38 40 41 36 38 40 39 38 32 33 38 44 45 42 40 39 33 32
19 19 18 21 19 18 21 26 32 28 25 23 23 26 28 32 35 35 33 32 32 30 29 31 32 31 28 28 28 27 27 27 31 38 35 34 39 42 45 36 28 30 34 45 46 46 50 44 42
21 21 19 18 19 21 20 19 19 45 48 40 36 39 32 41 66 78 47 32 31 29 27 26 24 20 19 19 18 18 18 18 19 22 24 27 36 46 34 18 21 30 40 47 58 58 58 53 54
29 24 21 19 17 15 17 22 24 22 36 50 44 71 48 35 28 37 48 36 30 22 18 16 15 15 15 16 16 16 17 18 20 23 26 29 33 47 44 26 26 36 49 55 63 71 65 56 59
24 22 22 20 18 18 17 16 13 23 26 26 26 35 35 30 30 31 31 25 18 16 15 15 16 17 17 18 19 20 20 21 23 24 24 27 35 54 50 34 31 53 76 71 79 74 69 63 59
16 16 21 22 21 17 18 18 18 15 12 13 14 21 22 19 17 15 13 13 14 15 16 18 19 21 20 19 18 18 19 21 24 26 26 27 30 49 55 38 31 81 78 77 89 72 59 71 61
22 17 17 21 23 24 18 18 18 18 19 18 16 15 15 16 16 16 16 17 19 20 19 20 21 20 20 19 18 18 18 21 22 24 25 28 29 34 43 32 45 75 62 69 84 74 67 66 65
26 25 25 20 20 26 22 25 17 18 18 19 19 19 18 18 18 19 20 20 21 21 21 20 19 17 16 15 15 17 18 19 20 24 30 35 36 35 32 36 66 79 69 47 64 69 63 64 74
29 28 30 26 20 20 21 25 27 24 19 19 18 18 18 18 18 18 19 19 19 19 18 16 14 13 14 22 26 30 36 39 41 44 46 48 48 41 42 62 57 63 68 62 58 64 62 63 75
32 32 24 27 25 20 21 22 27 27 26 25 25 24 23 18 16 15 14 15 15 15 14 14 16 20 23 26 30 30 34 40 48 54 55 52 47 41 42 61 77 85 92 81 72 64 66 70 74
33 27 29 28 26 25 23 23 25 29 29 28 30 30 31 30 28 25 20 20 20 19 18 19 21 24 27 29 28 28 37 42 48 54 56 52 49 55 57 84 100 93 86 97 85 71 65 71 79
19 28 25 20 27 27 26 26 27 26 27 28 29 30 31 30 30 33 34 37 43 46 42 42 48 49 42 38 37 36 36 42 43 53 51 53 78 100 95 98 99 100 94 86 78 67 72 86 74

GFSSGP_250_rhum_003.txt.gz
RH
16 14 14 8 20 29 23 12 5 8 11 13 16 21 28 26 25 23 26 32 40 61 67 91 96 100 100 94 99 100 100 100 100 93 55 28 51 100 59 18 10 28 51 38 32 23 19 19 19
8 7 7 5 2 1 2 15 18 6 7 10 14 18 20 24 25 26 31 46 57 60 79 78 79 90 96 100 100 93 70 52 50 40 40 98 84 33 24 16 15 30 46 26 23 20 20 22 23
5 6 4 4 4 0 4 9 15 17 18 17 19 18 22 24 34 32 35 54 88 79 84 74 79 67 86 99 100 91 58 54 55 100 86 43 30 28 25 16 21 46 27 21 30 39 23 19 22
17 12 7 6 6 4 4 9 15 30 31 26 24 27 29 35 41 38 46 68 78 90 88 77 54 89 94 100 98 84 100 100 98 66 35 26 27 30 19 22 30 51 27 52 44 59 31 25 26
12 15 13 10 13 24 29 33 33 36 33 32 38 46 39 32 46 47 50 67 94 82 99 87 91 100 100 100 90 83 87 78 63 32 24 24 45 54 22 20 44 58 32 37 53 70 52 38 55
18 17 16 19 26 61 54 40 50 51 54 82 71 60 43 36 42 56 57 71 69 63 51 48 60 77 92 87 90 97 75 39 30 36 33 25 31 46 4 16 78 61 40 40 82 93 78 46 70
34 40 44 38 52 59 58 51 48 64 59 58 44 34 31 28 42 66 79 80 64 57 63 66 76 84 99 60 27 18 32 45 33 36 28 25 23 27 8 48 87 75 77 100 78 79 68 54 48
26 36 66 72 88 82 92 92 85 70 63 60 34 32 41 49 55 45 48 56 60 67 60 46 33 25 21 15 20 26 25 25 24 20 28 20 23 34 34 80 93 88 66 93 66 86 77 79 56
51 29 25 28 32 55 61 68 63 33 29 20 13 18 49 67 60 67 58 43 39 36 22 22 13 9 12 9 13 19 36 24 14 20 29 27 29 46 40 42 57 88 90 86 93 61 94 73 74
50 82 62 47 41 44 46 39 31 33 34 34 28 33 36 29 4 10 16 19 18 15 11 9 12 10 10 8 22 51 35 21 24 18 31 22 40 50 53 60 51 64 75 76 87 89 85 81 87
56 100 75 70 49 45 35 27 36 43 35 24 14 9 3 6 10 11 11 11 10 10 9 8 9 10 12 14 16 42 43 26 19 21 27 37 36 42 40 41 42 41 43 49 62 71 73 89 100
40 79 37 31 33 40 27 28 64 48 35 22 43 54 50 31 15 10 9 9 9 8 8 8 8 8 13 11 29 30 15 19 32 39 25 29 15 16 12 12 11 16 12 13 13 13 12 12 27
7 20 26 20 20 59 60 46 44 68 72 67 53 48 39 41 19 10 10 8 8 8 8 8 17 9 30 17 9 10 19 24 20 18 19 30 18 30 22 12 16 13 14 14 21 23 21 17 14
7 7 9 11 13 21 59 58 39 38 29 21 11 7 8 9 9 9 9 8 8 11 17 38 7 4 19 0 9 8 13 15 17 19 32 18 30 56 53 35 29 22 22 24 25 28 27 26 26
11 8 7 8 8 10 16 21 16 12 9 8 6 7 9 9 8 8 8 12 12 9 6 1 1 12 8 11 9 12 29 29 33 32 32 42 48 71 43 59 49 34 34 36 37 30 38 33 34
18 12 10 9 12 11 9 9 9 9 8 7 7 8 9 9 10 11 11 11 13 14 12 9 22 33 31 45 39 38 43 37 35 48 45 50 58 44 44 52 36 32 32 38 42 46 45 40 35
16 20 13 10 10 9 9 9 9 8 8 9 10 12 12 14 15 14 15 16 19 20 20 21 32 30 25 33 43 71 49 57 40 37 36 46 36 38 44 38 17 24 37 40 43 53 55 50 47
15 17 24 13 12 13 12 10 10 10 11 12 15 16 17 18 18 19 19 20 21 23 24 25 27 58 65 71 41 39 50 40 36 34 34 29 47 41 39 28 17 21 33 48 54 53 64 62 54
19 15 17 21 22 20 14 15 13 12 13 18 20 21 23 26 29 28 28 28 27 27 28 30 30 26 23 24 23 21 18 16 16 19 31 35 30 31 42 42 32 27 26 57 69 63 59 62 59
21 19 16 21 22 22 24 24 27 23 21 22 27 32 31 37 45 54 42 32 29 28 28 27 24 20 22 18 17 16 17 17 18 20 22 24 27 31 35 48 55 34 26 62 84 65 65 56 60
25 20 20 18 19 21 21 20 20 24 36 30 26 41 46 38 48 58 79 40 33 27 23 20 18 17 17 18 18 18 18 18 19 20 23 26 27 30 34 50 58 52 36 62 85 70 61 63 59
27 25 20 22 19 16 19 20 20 17 36 40 45 48 57 49 35 31 32 37 31 23 17 16 16 16 17 18 18 18 18 18 18 21 23 24 24 28 33 36 52 63 46 48 75 68 51 53 64
28 25 22 20 20 20 19 16 16 22 20 23 29 36 43 27 30 32 31 24 15 14 15 15 17 19 21 21 20 18 15 14 16 19 20 21 26 29 31 32 35 43 37 42 77 84 73 58 62
23 17 17 22 23 21 18 19 19 14 13 18 24 30 31 32 27 17 15 14 14 15 16 16 19 22 21 19 16 14 14 19 24 30 33 40 46 47 45 47 46 41 46 47 55 69 94 88 72
22 19 14 17 22 27 23 20 18 20 19 16 14 13 15 16 16 17 17 16 16 18 18 18 19 20 18 17 14 13 22 27 33 33 37 44 47 50 49 50 54 43 41 49 60 75 92 84 86
29 26 24 21 25 28 24 21 21 18 19 20 20 19 19 19 20 20 19 18 19 19 19 19 18 16 15 13 16 19 21 23 30 34 40 43 47 54 56 52 46 38 63 59 58 79 89 88 89
30 28 28 24 23 26 28 20 20 23 24 22 19 18 18 19 19 20 19 19 18 17 16 15 14 14 15 19 21 24 33 40 40 40 44 45 46 47 43 36 43 56 49 65 80 89 77 65 72
29 29 24 26 24 26 29 26 19 21 22 24 24 23 24 22 19 18 18 24 23 23 24 23 23 24 26 28 27 28 33 39 42 45 38 38 43 39 47 74 80 64 69 94 94 89 77 79 83
28 28 23 21 26 24 31 30 28 22 22 22 22 24 26 26 24 24 25 28 28 30 30 32 33 33 31 28 27 28 32 34 39 38 48 42 40 83 97 62 80 80 83 91 82 68 87 96 94
26 28 28 25 27 30 29 31 31 28 24 22 24 24 27 28 27 28 31 31 31 31 30 32 34 33 32 30 32 33 32 35 40 39 34 36 90 100 100 78 83 89 97 77 75 85 91 95 99

GFSSGP_250_rhum_006.txt.gz
RH
12 19 20 32 47 56 48 36 20 20 19 17 13 13 14 15 21 27 26 25 29 38 43 60 84 100 100 100 91 100 100 100 90 62 61 65 92 39 27 23 16 35 26 29 28 19 17 23 39
14 15 19 24 22 23 29 36 32 26 12 9 6 7 9 13 16 19 24 27 35 49 62 80 95 94 91 92 67 60 94 100 74 99 99 70 36 30 33 29 15 41 37 32 30 25 26 21 35
11 16 13 12 19 19 20 23 19 10 12 16 14 17 17 18 21 23 30 35 43 79 99 100 98 94 80 75 95 96 100 95 92 98 67 31 29 36 42 25 34 45 25 43 34 33 32 31 28
8 8 10 7 7 10 9 5 2 4 9 10 17 23 29 31 38 41 37 37 69 100 100 100 79 88 72 64 83 96 92 99 92 44 30 37 27 24 42 33 50 47 22 59 46 40 41 39 43
8 7 5 5 7 6 6 4 8 23 24 30 28 32 36 38 37 41 37 60 64 100 100 99 100 94 71 86 76 86 85 35 25 34 31 28 21 26 29 24 78 61 58 84 64 52 50 49 52
20 18 15 12 8 10 20 21 27 31 32 35 39 43 51 42 36 35 55 62 88 95 94 82 64 59 81 86 78 27 18 27 30 24 20 22 25 34 57 95 100 80 100 98 100 78 64 55 53
28 24 23 16 14 28 51 54 46 52 53 55 46 43 33 27 43 37 54 77 86 89 86 67 66 60 64 28 12 12 18 24 28 16 24 30 34 38 61 91 99 96 76 98 100 80 95 77 60
25 32 41 37 38 57 64 64 67 58 69 42 36 31 31 32 40 54 70 59 67 60 52 42 40 26 19 10 8 14 36 28 14 19 42 25 38 40 61 50 56 84 94 100 100 100 100 83 75
32 34 68 76 74 63 49 52 58 44 39 28 26 20 18 26 42 59 51 56 44 27 27 21 14 12 17 10 12 38 24 27 26 22 26 38 38 41 38 39 46 41 40 39 42 56 77 98 95
72 68 76 47 39 35 34 38 42 42 35 34 34 21 21 31 37 11 5 12 18 16 11 10 9 13 12 11 17 41 35 23 30 32 33 26 15 13 15 17 13 12 13 15 14 15 16 19 51
65 88 79 64 56 54 51 45 38 27 32 29 23 7 6 5 7 9 10 10 10 10 9 10 10 8 13 14 40 19 25 31 22 22 15 23 16 11 12 12 12 14 24 26 25 24 21 19 17
20 100 93 59 55 55 49 41 32 49 55 33 16 38 49 43 25 12 10 9 8 8 8 7 9 10 13 21 17 23 22 18 18 23 23 24 44 47 56 42 27 25 26 30 29 30 27 26 27
19 58 68 28 41 57 43 33 51 49 51 41 55 41 27 28 36 12 10 8 8 8 13 8 31 8 5 9 14 16 16 17 25 24 24 39 80 67 51 43 34 33 31 32 35 34 34 34 29
8 14 21 22 40 66 59 43 43 53 60 48 33 10 7 10 9 9 9 8 12 31 11 1 8 2 9 12 22 29 30 31 31 32 50 71 72 53 52 41 36 37 34 34 36 38 39 41 35
11 9 9 11 15 24 53 53 38 29 17 10 8 6 8 8 8 9 10 10 7 3 1 15 21 21 19 23 38 39 35 35 58 60 81 94 90 43 51 45 31 38 39 46 47 42 39 37 39
16 12 10 11 8 10 13 30 24 11 8 8 8 8 8 8 11 12 11 12 12 9 12 30 26 40 63 60 50 47 59 59 76 81 59 36 47 59 46 36 26 35 40 66 55 47 40 43 42
19 17 12 9 8 8 9 10 10 10 9 9 9 10 12 12 12 14 16 17 17 17 22 31 24 28 49 56 64 46 52 52 36 20 48 38 85 35 44 54 54 45 44 34 56 51 42 44 46
16 18 17 14 12 9 8 9 9 10 10 12 13 13 15 16 17 20 20 21 22 22 22 26 37 91 74 79 40 25 20 16 18 20 63 27 29 29 36 35 42 49 54 43 40 54 50 44 52
20 16 18 21 19 12 11 11 12 14 18 18 18 18 20 21 22 21 22 23 23 24 24 24 22 36 37 23 23 19 16 16 24 22 24 30 22 22 26 27 28 42 50 47 44 45 58 54 51
27 19 16 17 22 23 16 15 15 14 18 21 24 27 33 37 31 42 30 27 26 24 22 20 17 17 46 18 31 28 24 21 23 17 24 26 23 26 27 27 28 30 40 50 51 49 68 59 57
27 26 19 17 17 17 20 21 24 24 21 22 26 36 46 36 37 28 36 32 29 26 23 19 16 16 25 22 20 21 20 17 14 14 18 24 26 32 34 32 33 36 38 41 43 55 68 63 62
30 27 22 20 19 17 17 17 17 18 24 26 25 39 45 54 40 32 28 30 30 25 19 15 14 14 16 23 22 23 14 12 14 21 26 28 34 40 41 42 45 49 50 51 43 50 52 62 50
22 25 25 22 19 19 17 17 19 20 17 34 41 40 42 32 39 32 30 29 23 15 13 13 13 14 16 18 18 16 14 14 19 22 28 32 33 38 44 44 46 47 49 48 41 60 64 61 62
17 20 21 22 23 20 20 19 17 16 16 21 26 25 24 24 25 25 24 15 14 14 15 14 15 17 19 18 16 14 14 19 24 35 37 40 39 38 39 44 45 41 41 51 63 48 56 64 63
26 21 19 19 21 27 27 23 19 19 18 15 13 16 17 16 13 15 16 15 16 18 18 18 19 18 18 16 15 14 19 34 35 37 36 40 39 37 38 45 42 53 62 65 73 49 47 61 64
36 34 27 25 24 28 26 28 23 20 19 20 20 17 14 14 14 15 16 19 20 20 19 19 18 17 16 15 18 26 30 32 32 33 36 38 41 42 53 44 50 73 100 63 49 44 50 57 82
35 31 33 28 26 23 27 22 20 23 23 20 18 19 20 20 19 19 20 20 19 19 19 18 18 19 20 24 27 29 30 30 31 32 36 37 32 38 35 87 98 94 89 88 83 81 68 92 84
23 36 32 27 26 26 27 25 20 19 24 24 23 22 21 20 21 20 20 20 24 23 24 24 24 25 26 28 30 32 30 29 32 36 32 28 26 31 100 96 59 72 66 72 77 97 100 100 100
35 28 30 31 28 26 27 28 25 21 21 21 22 21 22 23 24 25 26 26 28 27 27 26 25 28 30 32 34 31 29 32 38 32 29 28 29 33 86 87 83 68 48 96 75 90 100 96 93
41 30 34 31 34 33 30 27 28 26 24 25 23 19 18 19 22 22 23 25 26 26 26 26 29 33 35 34 31 33 33 35 36 32 25 20 19 31 73 92 97 86 74 54 98 100 100 100 100

GFSSGP_250_rhum_009.txt.gz
RH
11 11 20 24 63 56 28 40 64 83 49 31 19 22 14 12 74 31 48 40 26 25 33 47 54 71 100 98 96 98 82 68 69 59 75 73 55 24 25 33 25 32 34 30 28 24 19 30 51
9 10 17 34 78 90 84 64 77 56 47 36 32 25 20 16 16 14 22 26 28 32 35 52 70 73 95 97 92 80 81 83 66 72 81 41 27 28 29 35 37 38 39 37 35 33 30 29 47
10 10 100 19 31 41 45 47 46 33 34 37 20 17 16 15 16 18 21 23 31 41 57 88 100 100 100 100 88 72 93 94 68 53 23 27 30 23 32 43 50 34 49 47 44 41 41 38 47
11 12 13 23 20 25 25 26 24 24 26 18 8 9 10 18 28 30 35 40 42 41 44 66 89 100 100 100 82 83 81 67 23 28 29 25 22 27 26 55 75 63 71 61 50 52 49 44 44
10 12 14 17 13 12 15 16 12 13 10 9 11 11 25 26 32 37 41 36 66 81 87 100 100 100 95 68 80 81 34 16 22 24 21 21 32 61 94 97 90 97 100 98 70 64 58 55 48
10 9 9 9 10 9 6 6 6 5 4 12 21 29 34 39 43 38 36 36 68 72 100 86 100 85 61 74 55 16 11 20 28 16 29 27 35 52 57 78 86 90 75 86 91 85 79 69 64
16 16 11 9 6 5 7 9 14 16 21 26 38 43 39 34 28 32 58 40 54 75 86 89 84 59 45 32 12 10 22 26 18 19 32 38 41 50 51 56 54 63 73 68 61 81 100 96 79
18 19 20 22 22 17 14 16 26 46 45 51 43 33 27 27 28 37 46 66 84 74 81 59 42 32 25 14 10 19 23 24 24 23 32 22 18 18 22 16 14 15 15 15 14 14 17 32 76
24 27 20 24 29 25 52 55 58 40 36 25 23 26 23 22 29 41 40 55 41 45 42 23 20 14 25 10 12 28 24 22 27 17 11 12 12 13 11 16 18 20 20 20 20 22 22 17 17
28 58 44 65 100 88 62 42 37 35 32 36 34 34 25 22 26 33 23 9 14 18 20 11 13 13 11 13 35 22 30 19 14 12 13 15 15 21 15 18 24 26 30 32 26 24 29 28 29
43 59 63 100 76 36 32 40 42 39 38 30 33 23 7 5 6 10 10 10 11 11 10 10 12 11 18 19 18 20 16 17 19 22 30 47 52 40 37 29 34 29 30 48 32 26 26 27 30
12 59 78 66 60 67 58 52 48 40 31 34 24 9 23 33 21 13 11 10 9 8 8 8 9 16 13 16 14 16 17 21 23 31 74 88 59 47 34 34 30 34 33 36 36 33 32 31 30
11 57 92 90 55 52 51 42 41 42 38 42 23 50 40 32 42 21 10 9 8 8 12 20 5 8 10 13 19 24 29 29 31 51 80 77 64 45 38 39 39 37 45 38 45 34 33 33 31
9 23 53 57 45 44 51 42 52 43 50 44 46 41 9 7 12 9 9 9 10 9 8 6 8 10 19 28 31 34 47 54 54 72 90 90 65 55 56 28 39 40 44 36 44 37 37 42 41
11 10 8 13 19 56 48 37 50 44 45 35 18 5 6 9 8 8 10 25 19 1 4 9 12 18 32 36 35 39 50 66 61 53 62 28 55 55 42 57 52 46 43 47 50 39 48 44 44
15 11 11 10 10 16 34 62 46 33 12 6 8 9 8 8 9 11 9 8 6 6 26 29 38 50 55 56 48 59 68 53 23 21 56 39 73 34 32 32 39 47 52 60 42 42 49 57 52
18 14 13 10 10 9 12 42 47 14 7 8 9 9 9 11 11 12 13 12 11 26 24 26 30 47 66 56 37 29 32 17 20 26 35 39 40 27 34 35 40 41 41 46 62 54 46 64 54
19 19 13 14 9 9 9 36 9 8 8 9 10 11 11 12 12 15 17 18 21 29 30 37 78 80 69 93 70 18 18 17 22 18 22 30 30 22 46 37 23 28 30 33 43 45 49 49 56
21 18 20 16 14 10 8 11 9 10 11 12 16 16 18 17 18 20 20 21 21 24 26 25 24 42 50 33 36 25 21 18 17 14 19 22 30 34 48 42 48 39 34 37 41 41 42 52 54
25 23 18 21 21 15 11 10 12 15 15 17 19 21 22 26 26 25 25 24 24 22 22 21 18 17 44 20 28 31 25 15 13 15 23 23 27 33 35 45 41 41 45 45 44 46 38 54 60
26 25 22 17 20 24 22 20 13 15 18 20 22 26 37 38 32 26 26 26 24 23 20 18 16 15 20 36 22 26 37 14 13 17 23 28 31 34 37 42 43 42 46 44 41 42 52 52 56
24 25 23 20 18 23 21 25 26 22 18 22 26 30 41 47 39 25 23 23 24 26 22 18 14 12 12 20 28 38 22 14 14 19 27 30 39 37 37 39 40 40 38 41 50 46 65 62 70
26 21 21 23 19 18 17 18 21 21 25 22 23 27 34 42 44 42 27 24 26 23 16 12 12 12 14 16 23 24 17 17 18 24 27 29 30 28 28 30 30 38 37 39 70 60 67 56 57
33 26 18 19 23 18 20 18 18 18 16 18 30 29 28 35 42 34 28 22 22 15 13 13 15 16 17 18 17 16 21 22 25 28 28 27 27 27 32 29 27 29 46 91 71 71 47 54 59
30 32 27 18 18 25 23 20 30 19 15 16 16 29 43 45 40 26 27 25 14 13 14 15 17 18 18 17 17 18 21 26 28 29 29 28 30 29 26 24 23 44 87 77 89 69 51 52 63
40 36 36 28 24 30 31 27 26 22 18 19 17 15 15 16 18 22 18 16 14 15 17 19 19 19 18 18 19 22 24 27 28 30 29 32 28 26 26 27 32 100 100 77 59 56 56 55 49
42 29 34 34 29 26 26 30 27 23 24 21 19 18 18 18 16 14 14 14 15 18 19 19 18 18 20 21 22 24 27 29 30 30 32 36 37 32 26 26 17 34 68 64 71 52 48 45 35
47 39 32 32 31 23 27 28 27 21 22 25 23 20 19 19 19 20 20 20 20 19 19 18 20 22 22 24 26 30 32 31 30 33 34 37 33 32 23 16 19 17 40 39 54 70 54 63 60
31 40 41 34 33 30 31 29 28 26 21 24 26 24 22 21 20 19 19 20 22 22 22 22 23 24 24 26 30 33 32 32 34 33 38 43 36 28 24 14 28 28 42 36 34 47 66 76 91
19 32 40 39 36 32 28 29 30 29 26 22 22 20 18 18 20 21 21 22 23 22 21 22 23 24 26 28 31 32 34 37 36 37 41 42 31 23 18 11 26 34 35 42 66 62 50 50 48

GFSSGP_250_rhum_015.txt.gz
RH
13 19 21 27 44 98 100 95 92 100 100 92 96 92 80 68 53 29 23 20 37 56 59 57 68 81 77 77 84 99 100 84 61 69 62 38 20 17 19 25 32 39 44 41 38 33 29 28 33
16 45 59 100 74 74 98 86 88 99 92 97 85 84 76 58 46 36 22 13 42 49 40 34 40 45 56 60 100 100 100 74 72 56 32 18 17 21 35 37 37 44 48 50 53 34 39 43 40
14 31 92 100 98 99 100 100 100 90 79 84 82 58 50 48 39 29 15 20 25 44 40 41 39 44 54 68 78 75 96 74 40 26 16 16 20 30 38 61 54 62 68 61 68 63 38 44 49
20 82 100 100 100 65 100 100 100 100 81 63 54 47 39 29 26 19 12 20 31 36 35 40 63 69 100 100 100 91 74 35 21 15 15 22 23 29 79 91 76 80 67 70 78 82 65 48 34
41 100 100 100 91 99 96 100 95 84 24 29 32 32 27 26 20 16 21 24 29 33 35 45 84 79 99 90 83 38 37 18 16 16 16 17 19 22 28 32 31 27 16 15 17 38 79 74 50
40 62 94 100 100 100 100 82 76 63 20 15 23 18 16 19 16 23 28 27 26 28 43 44 55 62 96 82 52 34 19 13 18 14 12 10 10 13 16 18 18 19 16 18 18 20 19 55 61
100 100 100 98 100 89 100 69 12 14 16 15 18 23 18 22 31 32 30 27 27 27 40 55 42 63 57 36 26 22 14 18 13 12 10 17 20 22 27 27 26 21 28 27 21 19 20 21 26
90 98 95 99 95 46 20 14 16 17 10 7 10 19 41 49 49 35 28 29 27 35 42 45 21 29 19 16 20 18 18 11 11 14 13 24 29 34 43 92 87 95 36 34 25 20 19 20 35
61 48 79 83 60 77 11 8 10 9 10 16 17 80 77 69 37 30 21 19 22 38 36 17 14 12 11 12 22 16 10 13 24 26 27 28 50 100 100 100 97 100 70 41 44 33 32 30 26
32 94 49 23 27 20 13 15 12 16 22 21 30 51 31 29 23 21 21 17 18 16 14 11 9 11 12 28 23 13 14 22 40 38 36 42 95 100 100 80 89 96 100 71 38 31 27 24 30
4 7 12 14 20 29 29 22 22 18 39 30 41 30 26 25 24 23 10 8 9 8 9 8 8 12 21 18 16 20 24 40 54 40 45 48 88 92 78 66 69 70 87 44 52 40 25 27 26
6 6 9 29 48 45 35 39 36 46 35 27 31 28 22 13 8 8 10 18 11 9 8 8 10 19 17 16 22 27 35 58 54 47 53 51 62 58 51 63 53 54 61 69 40 36 30 24 26
8 7 15 40 57 61 59 81 54 30 30 32 35 43 21 33 30 30 31 22 12 8 8 10 21 16 16 26 30 41 59 74 76 66 34 44 40 43 45 58 43 42 44 48 45 35 30 27 27
11 8 8 12 48 70 47 50 32 33 36 37 54 56 23 26 28 10 18 13 8 13 9 13 12 23 38 50 54 60 49 42 39 44 44 45 32 32 43 54 58 68 39 44 43 46 40 36 32
16 11 8 8 9 20 50 46 47 52 43 55 47 38 29 38 25 9 9 8 13 11 8 12 24 30 39 43 54 33 20 21 21 24 25 28 41 42 55 75 76 53 40 36 44 44 42 37 44
21 17 11 8 8 8 21 41 59 47 57 38 53 49 50 44 24 8 11 12 8 6 10 26 34 45 45 37 25 16 20 20 17 18 21 30 33 29 61 51 59 47 47 47 43 45 48 48 39
21 19 14 9 8 9 12 15 46 70 46 42 40 15 15 16 8 16 21 2 4 8 18 49 51 51 42 27 23 20 19 17 15 18 18 19 31 42 40 43 61 40 48 42 39 41 44 43 42
22 21 18 11 9 11 10 19 46 94 100 38 10 9 7 7 10 10 3 4 22 30 43 40 68 75 85 48 26 22 18 15 14 16 17 20 23 36 29 37 43 31 30 33 33 28 33 41 43
26 24 21 17 10 23 88 76 78 100 44 10 8 9 7 10 9 10 7 14 28 29 31 57 68 61 39 27 25 38 35 18 16 17 22 22 25 26 25 25 24 23 22 20 22 27 29 42 54
24 27 24 19 15 11 73 51 54 52 9 8 9 12 11 11 12 14 13 32 32 32 32 36 43 36 44 33 36 27 55 24 20 21 25 24 25 32 26 21 18 17 15 14 15 14 31 61 62
32 30 22 21 19 14 10 60 63 9 10 9 10 12 11 12 16 19 21 28 30 28 28 26 20 17 16 17 14 21 28 18 24 26 28 28 30 34 26 26 26 24 22 18 11 17 35 46 60
41 33 25 20 21 20 16 9 10 12 45 16 14 14 15 17 19 22 26 26 26 25 23 21 20 17 15 12 12 17 21 21 26 25 27 30 29 26 28 28 28 27 27 23 19 11 18 21 35
53 39 30 20 16 25 19 13 10 10 100 100 18 16 20 25 27 26 26 24 24 23 23 23 20 16 12 11 14 18 18 19 24 25 27 30 28 25 26 28 28 28 28 23 19 15 10 16 21
48 44 40 28 16 18 23 22 17 14 31 75 22 19 23 39 41 43 44 33 28 25 22 21 17 12 11 12 16 18 19 22 24 23 24 27 28 26 26 24 26 28 28 24 19 16 11 18 25
26 40 44 41 21 24 27 29 25 19 17 16 40 38 24 35 31 36 41 34 37 34 25 22 19 14 13 15 18 19 19 23 24 23 26 28 30 30 28 27 28 30 27 24 21 17 13 13 28
12 20 31 46 49 33 31 23 38 27 21 20 23 21 50 100 86 32 26 28 30 33 33 23 18 15 15 16 19 19 22 25 25 24 28 29 30 31 31 30 31 31 29 24 20 17 15 13 19
12 12 19 28 49 32 32 23 31 30 28 21 18 20 31 92 100 94 29 25 30 32 35 23 17 16 16 17 20 20 25 26 25 24 27 29 29 31 34 33 34 32 31 27 21 16 15 14 17
20 17 12 16 28 46 45 31 29 26 28 32 22 19 22 95 100 50 23 20 31 28 27 19 17 16 17 19 20 24 26 24 23 25 27 28 28 29 33 36 34 36 33 31 25 18 15 15 14
26 25 20 11 14 24 45 43 39 33 30 35 32 27 19 20 22 18 17 16 16 15 15 16 18 19 19 22 24 26 25 23 23 26 28 28 30 31 33 36 36 38 36 34 29 21 17 17 17
15 20 20 17 13 12 20 44 45 40 35 28 32 30 24 21 23 21 20 19 19 19 19 20 20 21 21 22 25 26 24 24 27 30 30 31 31 32 38 38 37 40 39 35 31 21 18 19 27

GFSSGP_250_rhum_021.txt.gz
RH
15 100 62 44 59 100 92 88 98 91 70 68 98 90 100 98 98 78 79 69 62 43 26 19 29 66 70 67 56 71 92 94 63 38 16 22 30 45 55 49 45 52 72 67 66 43 36 46 36
19 95 100 88 82 91 100 100 78 100 72 65 75 99 100 100 100 89 72 66 49 28 19 18 50 54 69 63 68 88 91 65 37 14 20 22 22 44 59 55 49 57 52 66 76 66 56 60 84
19 23 81 100 100 100 99 100 93 81 93 80 94 100 100 100 99 86 89 59 26 17 14 36 36 47 55 59 74 74 74 44 13 20 17 11 15 22 22 20 20 18 19 20 69 75 68 74 73
18 33 89 100 68 66 59 93 86 99 91 100 85 96 100 99 70 44 30 19 13 13 18 35 39 41 53 52 61 63 36 14 19 14 8 16 15 15 23 25 20 20 20 19 20 40 70 80 85
17 35 100 100 100 89 95 56 51 65 80 65 66 99 91 67 39 21 16 12 12 20 33 34 37 52 42 31 32 23 18 20 12 10 15 24 19 29 51 31 33 24 25 26 30 33 47 66 68
18 32 100 100 98 100 100 63 72 87 88 84 89 99 78 52 24 14 12 15 26 31 32 32 38 44 18 14 13 17 20 12 11 18 38 39 44 97 68 80 44 29 30 26 24 39 50 64 65
22 33 88 66 86 92 89 95 100 100 100 100 100 100 88 23 12 10 13 29 34 28 22 23 42 20 11 10 18 16 12 12 22 45 77 81 72 100 100 100 91 52 24 21 34 50 37 38 62
17 20 34 86 87 73 80 87 89 93 99 96 99 78 21 8 8 12 36 38 26 22 21 28 16 11 10 20 12 11 14 19 46 86 89 88 95 79 91 87 87 53 28 23 24 60 31 42 47
18 18 20 26 90 100 100 97 87 70 85 85 44 17 13 10 12 42 31 24 20 19 15 13 9 9 20 11 11 18 22 30 41 76 98 78 90 83 63 55 64 54 37 27 23 37 30 29 27
42 53 50 36 20 34 56 71 89 95 86 60 19 11 11 13 22 31 28 22 18 8 9 11 8 16 15 12 18 28 36 40 48 62 59 70 81 66 59 42 40 41 40 32 27 28 25 25 27
9 8 15 30 32 37 63 75 93 94 87 49 16 15 12 16 22 26 21 11 8 9 9 8 11 15 15 15 30 43 39 45 48 41 40 51 51 86 55 48 54 34 38 38 32 27 27 28 34
6 6 6 7 11 28 26 29 27 36 45 23 20 18 22 22 26 19 9 13 17 13 9 7 14 14 17 23 37 49 43 47 44 40 34 37 38 30 49 58 49 37 37 42 40 34 30 33 32
10 8 7 6 6 7 10 25 43 46 42 28 19 19 26 25 25 19 26 24 30 16 7 12 13 14 23 34 48 53 59 40 33 26 26 44 34 45 30 45 35 50 38 71 62 53 35 40 42
12 13 10 8 7 19 22 38 59 72 80 81 51 28 33 32 23 29 28 15 20 9 9 12 15 25 41 40 40 34 26 21 20 19 23 24 35 34 29 36 29 24 26 38 32 33 35 29 36
14 15 14 11 9 8 8 14 58 76 63 65 48 40 38 39 26 31 30 15 9 10 15 13 30 46 41 23 21 20 18 17 18 19 21 23 28 27 24 22 18 16 16 16 16 20 23 36 50
17 16 18 16 11 11 10 12 51 66 77 56 50 44 38 41 34 35 31 18 11 11 14 27 41 50 22 20 21 18 16 16 16 18 21 22 25 33 26 26 26 25 23 20 16 13 20 32 51
17 18 17 19 14 15 17 15 26 43 56 64 53 40 46 53 42 28 22 11 10 12 23 31 46 33 18 20 20 18 16 15 18 21 21 24 30 26 26 27 28 28 27 23 19 16 11 19 34
18 22 19 21 18 16 23 21 12 21 55 48 38 39 48 46 24 12 12 12 10 21 30 42 33 22 26 22 20 19 18 18 21 22 22 25 30 30 30 29 29 30 30 25 22 19 16 11 14
22 28 24 18 19 20 25 40 28 39 44 46 34 34 27 10 9 11 11 9 11 33 41 53 46 69 34 25 34 37 49 21 21 24 25 28 28 28 30 29 30 32 31 30 24 20 18 14 13
26 22 30 22 18 17 21 68 44 54 67 59 71 52 9 10 10 19 9 5 12 30 42 65 77 66 34 29 33 20 23 24 21 24 27 31 30 28 27 27 29 30 31 31 28 23 18 16 14
38 32 22 20 22 17 22 25 66 51 53 35 21 9 8 10 22 5 3 6 13 23 40 66 62 53 31 34 28 13 16 18 18 21 25 28 27 27 27 29 29 30 29 28 26 26 23 16 15
32 46 28 20 23 16 19 20 21 43 68 10 8 9 10 11 9 9 6 11 18 21 31 39 45 36 38 21 15 12 16 18 19 22 26 29 28 27 29 32 29 29 29 31 30 28 24 17 16
19 29 28 24 21 15 19 27 21 14 45 9 9 10 11 10 10 12 14 32 30 28 32 31 29 24 20 18 16 12 15 19 20 21 25 26 26 28 30 28 27 28 29 32 33 30 26 28 20
10 13 20 27 25 21 32 26 32 22 14 11 12 11 12 12 13 15 16 26 37 32 24 27 25 23 23 21 17 13 14 16 20 20 25 25 25 25 26 26 27 29 31 31 32 34 30 27 24
15 10 10 15 22 45 32 25 27 28 22 12 42 23 19 15 17 18 19 22 28 30 30 26 27 28 27 24 17 14 14 16 17 20 23 26 24 24 26 26 28 31 34 36 33 30 26 26 23
18 14 10 9 14 26 33 30 32 25 25 16 21 79 40 20 20 20 21 24 31 32 32 34 35 37 34 28 23 16 15 16 17 19 22 26 24 23 25 28 30 33 35 37 36 35 30 27 29
25 15 20 10 8 11 20 36 37 25 22 23 22 40 100 67 19 18 25 28 38 45 43 40 33 34 36 36 33 22 19 17 17 18 21 26 25 23 26 29 30 32 34 34 35 34 37 36 32
17 24 16 14 11 8 12 27 46 39 28 22 21 25 28 27 25 20 25 36 36 37 38 38 36 30 33 34 35 31 19 17 17 18 20 23 26 24 24 28 29 30 31 31 33 34 36 37 36
20 23 20 14 12 12 11 11 37 47 39 26 21 26 30 26 26 40 28 24 30 43 74 85 66 58 27 30 34 40 24 19 18 19 20 23 26 26 25 26 28 28 29 30 30 33 35 35 37
16 15 15 14 23 18 14 13 11 29 47 37 26 27 27 25 21 20 30 46 38 33 64 86 100 100 39 32 39 42 20 19 18 19 22 24 26 26 26 26 28 28 29 28 30 32 34 38 50

GFSSGP_250_rhum_024.txt.gz
RH
34 54 31 41 89 76 100 94 50 71 67 86 60 47 57 59 92 100 100 95 93 83 73 32 48 87 79 38 45 56 69 63 54 18 17 18 16 23 20 25 23 22 25 59 72 63 46 73 51
19 69 40 32 36 100 90 60 70 71 100 100 92 67 71 100 94 95 100 100 89 74 32 20 63 67 31 34 47 51 59 51 19 16 10 12 14 23 20 20 18 18 18 19 64 86 98 99 96
21 35 90 60 49 56 92 99 96 100 100 99 88 100 94 74 94 100 81 54 39 24 16 22 46 40 29 35 29 51 38 18 15 9 14 14 37 28 31 24 21 20 21 21 24 66 73 90 95
22 28 83 98 75 64 67 72 85 80 54 79 100 100 100 98 100 96 70 38 23 15 14 49 43 32 37 21 26 21 18 14 8 16 16 36 62 40 51 42 37 26 21 20 31 39 64 76 83
25 30 62 84 87 97 94 79 82 53 63 78 66 80 70 79 93 93 77 18 13 15 25 31 25 34 28 16 14 16 16 10 15 26 35 70 74 88 95 69 58 30 22 36 38 35 50 62 73
22 30 29 35 37 53 43 68 91 58 80 100 93 89 90 90 100 95 28 8 12 28 30 24 22 22 13 11 13 14 10 15 37 43 60 92 90 83 70 66 62 30 26 39 33 25 32 61 71
18 23 30 98 78 41 56 55 50 45 83 100 100 100 100 90 66 29 8 9 26 27 26 19 18 14 11 13 13 11 14 31 74 66 73 95 76 60 52 59 54 32 33 26 28 46 27 25 52
18 21 26 28 90 82 72 86 63 63 73 86 84 88 76 62 17 9 11 20 20 23 19 12 11 12 16 11 11 14 22 53 72 96 87 86 78 71 51 50 46 36 30 26 33 58 36 27 36
12 17 21 24 33 56 51 54 77 90 89 100 90 80 82 44 13 10 18 21 24 20 9 10 11 14 14 10 15 21 35 44 71 66 65 73 75 55 56 50 41 39 40 30 29 37 41 33 36
8 12 23 29 21 20 27 48 90 84 86 71 81 94 71 65 14 10 23 22 19 7 11 12 9 17 10 15 21 30 33 41 48 42 44 51 52 66 64 57 45 42 41 40 30 27 32 37 37
17 11 10 31 40 35 27 27 22 18 33 73 74 65 44 46 12 18 24 20 9 11 12 9 14 14 13 20 30 35 38 41 38 34 36 40 40 48 55 54 50 42 57 51 50 31 32 38 40
9 8 9 11 14 11 16 21 20 25 32 26 18 22 21 17 11 26 21 11 20 16 10 8 15 13 15 25 39 39 41 43 25 25 35 42 42 44 45 36 36 35 45 51 57 44 35 43 46
14 12 10 7 6 6 5 5 5 6 12 42 50 37 35 20 22 26 20 21 25 20 9 12 14 15 22 37 44 44 38 22 19 22 24 36 30 26 23 19 19 47 18 17 25 38 41 44 49
16 18 16 12 8 7 7 6 6 9 21 43 48 55 69 44 27 25 29 21 23 14 8 13 15 20 38 40 39 26 19 18 18 20 24 25 25 22 26 26 26 24 21 18 13 15 23 34 55
15 18 20 17 12 9 8 8 16 10 29 57 97 76 54 52 34 25 30 20 16 8 14 13 26 38 35 24 21 17 16 17 18 20 22 25 26 29 28 29 32 26 24 20 18 14 18 23 46
15 18 22 23 23 13 10 12 20 11 26 55 64 58 54 49 36 25 31 31 9 12 15 27 32 32 22 18 18 16 16 17 20 20 23 26 26 29 29 29 30 28 24 21 19 16 12 11 16
14 16 21 21 22 19 14 23 23 13 22 48 59 52 53 45 42 40 34 30 10 15 22 36 35 26 19 19 18 17 16 19 20 20 22 26 27 34 28 29 31 31 30 23 19 17 16 14 14
18 21 21 23 21 19 17 32 28 21 18 45 56 54 50 46 46 45 22 17 11 14 29 35 34 20 20 19 21 20 21 20 23 22 23 25 24 25 32 30 31 31 32 30 28 23 17 15 14
27 25 30 33 21 20 19 29 42 34 40 40 59 57 43 48 35 12 12 14 10 18 28 40 30 21 23 22 29 32 41 20 22 23 24 25 24 26 29 30 31 31 33 33 30 28 22 17 15
38 36 33 31 26 19 20 19 45 45 53 71 78 88 40 24 8 11 12 16 10 20 31 39 30 39 28 24 30 21 25 23 20 23 23 24 26 26 29 30 30 29 30 32 29 29 25 21 17
35 46 36 31 26 25 23 22 26 57 64 61 44 77 44 8 9 12 16 14 14 24 34 43 56 67 32 26 32 14 17 18 19 22 23 24 27 29 30 30 29 29 29 28 25 24 24 23 20
18 36 32 30 28 25 28 26 25 35 48 62 13 15 9 8 10 15 16 10 19 37 41 49 61 53 37 29 29 15 14 19 19 22 25 25 26 27 27 28 29 30 32 27 23 26 27 24 21
9 13 15 20 30 26 34 34 23 18 19 44 9 9 10 9 20 8 6 5 10 24 43 50 52 39 30 27 18 16 13 17 20 20 23 25 24 24 25 27 29 32 33 30 26 25 27 26 27
8 9 9 11 22 35 44 42 33 20 18 26 10 10 10 13 9 6 5 8 16 27 37 31 28 27 23 20 20 17 13 13 16 18 21 24 24 22 22 24 28 33 34 34 33 32 31 30 30
11 10 8 7 11 45 45 43 39 21 19 17 10 11 11 11 11 12 8 16 20 21 24 26 24 24 24 27 27 22 15 13 15 17 18 20 23 23 21 22 28 32 33 32 32 32 33 33 34
11 10 12 9 8 15 30 47 43 33 20 14 12 15 12 12 13 14 16 14 22 25 25 22 23 24 26 26 22 20 18 16 16 16 17 18 20 23 23 20 25 29 30 30 30 30 31 33 34
14 14 13 11 10 8 12 39 48 42 33 23 14 24 29 16 16 16 18 20 20 20 21 24 31 33 33 35 30 22 20 19 20 20 19 19 19 20 23 23 22 25 27 28 30 30 30 32 35
23 22 15 16 13 14 8 12 27 46 42 34 24 18 15 39 48 24 21 23 22 22 35 37 37 37 36 38 37 30 28 24 23 24 19 19 19 20 22 24 23 23 25 27 29 30 30 32 36
24 26 19 15 17 20 14 19 14 24 40 42 34 29 22 17 25 99 37 21 24 25 32 41 41 42 46 52 52 52 36 29 27 23 22 19 19 20 22 23 23 22 23 26 29 29 29 31 33
21 20 18 14 22 22 19 26 19 14 15 35 43 33 27 28 22 34 49 27 22 25 33 38 42 44 57 82 66 56 76 35 37 25 18 20 19 21 22 25 24 24 25 28 30 29 28 30 32

GFSSGP_250_rhum_027.txt.gz
RH
64 52 48 71 81 78 82 100 96 93 48 68 71 87 94 81 90 90 100 100 100 90 77 81 43 54 96 78 25 26 43 40 17 12 13 32 27 28 22 20 21 20 26 64 73 70 54 60 67
16 49 48 99 92 100 100 99 90 76 63 70 75 100 100 100 100 94 100 98 78 64 48 21 28 69 62 26 19 30 24 19 12 12 34 36 41 46 44 32 29 23 37 26 65 83 98 100 100
17 18 48 52 83 90 98 88 72 53 75 83 83 96 100 100 98 93 90 97 92 66 26 16 33 60 24 27 18 17 16 10 15 15 50 43 58 66 44 42 34 26 35 36 37 68 76 98 98
16 16 59 64 42 38 83 78 74 78 94 99 60 76 77 82 73 82 98 100 67 14 15 18 34 23 29 13 14 15 11 12 18 44 44 51 61 43 40 42 31 44 26 26 28 48 75 82 85
19 19 32 56 52 46 39 68 79 100 98 59 54 68 82 89 100 100 94 55 10 11 22 22 26 22 13 10 12 15 12 22 29 59 63 55 49 43 41 37 30 32 24 27 23 26 58 61 78
19 22 18 21 41 78 60 55 84 80 70 58 62 69 78 99 96 79 52 10 10 17 20 17 20 17 10 11 16 11 19 38 50 61 62 63 59 48 40 34 31 30 28 34 26 20 30 54 60
18 23 25 32 52 74 83 88 74 52 45 45 39 60 95 100 92 64 29 10 12 17 17 16 14 9 11 18 12 16 36 56 55 58 61 67 61 49 47 36 35 37 30 30 35 30 32 29 35
15 22 22 27 24 24 29 38 47 46 46 57 60 64 63 85 94 88 62 12 11 19 14 10 7 11 18 11 14 26 40 58 55 45 50 54 59 58 64 45 42 40 37 31 41 32 33 36 52
10 15 21 20 23 27 29 47 66 58 57 64 59 74 80 83 89 86 44 14 13 17 8 10 7 19 11 14 22 29 50 49 41 38 42 39 52 62 47 45 48 51 51 35 46 43 39 41 42
8 9 13 17 18 22 24 25 27 35 36 29 33 38 64 61 76 57 25 14 16 8 11 9 12 13 13 19 29 34 40 40 32 41 35 40 42 32 44 38 42 60 57 51 34 33 42 45 47
11 7 8 9 12 14 16 26 24 18 21 24 30 27 32 42 24 17 14 13 15 10 13 7 16 12 15 23 35 38 39 25 26 42 36 33 36 23 17 22 28 21 32 52 48 34 37 46 48
7 10 12 10 7 8 12 31 31 15 15 13 19 23 13 20 24 24 18 17 14 16 12 8 16 13 16 28 34 37 25 21 21 31 24 19 18 20 27 25 21 18 15 18 25 31 32 39 40
12 9 8 7 7 7 8 7 6 6 7 8 8 25 35 32 36 42 22 15 24 24 10 14 14 14 22 32 29 23 18 19 21 24 19 22 26 28 30 26 22 19 17 13 13 55 33 46 68
14 13 12 9 9 9 7 7 7 8 10 9 21 52 45 54 47 41 22 29 20 18 9 15 14 18 26 27 20 17 17 19 22 24 24 26 28 28 29 26 24 21 19 16 13 17 18 27 46
18 16 11 11 12 13 10 9 8 15 10 19 41 94 69 59 54 32 32 29 20 12 13 14 15 28 22 21 17 16 17 20 22 22 23 26 30 34 29 32 30 25 20 17 17 35 24 18 24
17 20 18 11 10 12 11 11 10 22 14 25 48 90 71 60 51 41 33 32 17 9 16 15 27 24 17 17 16 16 18 20 21 23 23 32 49 29 31 32 35 30 27 38 19 27 17 14 14
19 17 22 17 14 11 12 14 15 26 24 23 48 56 62 55 41 32 32 32 16 11 15 27 31 21 17 17 18 17 19 21 21 23 24 24 29 31 33 34 35 33 30 26 27 18 17 15 14
16 21 25 26 19 16 17 16 19 33 40 26 43 43 47 52 45 41 34 27 14 14 17 28 30 19 18 18 21 21 19 21 21 24 26 26 28 31 32 33 34 33 28 23 22 19 18 17 16
15 24 29 30 29 20 19 16 20 35 40 48 31 41 47 50 43 50 36 22 14 16 22 24 27 18 19 23 24 35 20 20 21 22 24 27 26 28 28 29 30 32 28 25 22 20 20 20 19
26 37 41 35 31 24 20 19 19 36 42 52 59 31 45 53 52 34 25 15 17 15 25 26 24 22 21 28 26 25 22 19 20 22 24 26 27 26 26 26 27 30 27 23 23 24 24 23 23
16 35 46 47 40 28 23 28 20 21 43 52 67 58 57 54 57 11 13 16 18 14 22 33 27 33 24 26 17 14 17 18 19 22 24 25 25 26 27 28 29 29 28 25 25 24 24 25 27
10 14 22 40 48 39 27 27 30 20 26 48 51 38 45 21 15 11 11 16 18 31 35 38 32 50 30 26 31 14 15 18 19 21 24 23 24 24 27 28 29 31 30 30 30 29 30 32 32
10 8 11 19 35 48 42 36 32 33 18 38 39 26 11 8 12 14 12 20 23 26 36 46 55 63 52 33 34 17 12 17 19 20 20 23 23 22 23 27 29 31 31 31 30 31 31 32 33
10 9 9 10 20 44 50 46 40 40 26 21 30 20 10 7 11 19 13 13 18 26 26 39 63 55 43 31 27 18 16 13 15 16 18 19 22 24 22 23 27 30 32 31 30 30 30 32 33
12 11 8 8 10 41 47 49 46 36 35 19 19 16 10 7 14 9 6 9 10 12 17 34 44 32 27 22 19 21 20 14 13 15 16 16 18 20 23 24 22 23 26 29 29 29 29 29 31
13 11 13 12 10 11 18 46 44 37 39 26 19 17 10 10 11 8 6 6 5 10 21 38 32 26 25 24 25 24 21 18 15 15 17 18 18 18 20 21 23 21 21 24 27 27 27 28 29
13 17 14 13 13 10 13 35 41 41 36 37 26 18 11 11 11 11 11 9 15 26 29 32 29 25 25 25 27 24 26 25 21 20 22 24 24 20 19 20 21 22 22 23 25 24 26 27 28
16 15 16 22 26 22 17 13 26 41 36 42 35 31 14 13 12 13 15 13 10 23 29 27 27 26 29 31 32 32 30 32 31 30 28 31 32 26 19 19 20 23 25 26 26 26 25 28 29
28 27 23 25 24 35 28 18 15 19 32 39 41 37 26 24 27 15 16 18 20 17 21 26 29 30 34 37 40 42 50 55 59 58 36 32 36 31 25 20 20 23 25 26 25 25 27 28 30
27 26 17 18 27 27 24 22 23 15 14 28 42 43 32 24 23 44 57 43 27 22 23 25 28 35 41 47 47 47 56 63 75 70 94 38 39 22 19 20 21 22 24 26 26 26 27 29 31

GFSSGP_250_rhum_030.txt.gz
RH
59 45 49 53 56 66 73 47 66 100 96 91 63 67 83 100 100 100 100 100 93 86 93 72 55 50 66 90 50 19 14 14 12 38 36 49 45 34 33 31 28 28 27 59 64 64 55 64 93
46 59 48 48 68 68 53 51 39 53 49 70 89 76 85 91 95 91 87 84 100 100 42 51 40 54 80 53 25 14 13 11 24 43 43 51 36 31 32 33 23 26 38 40 86 87 65 88 100
18 51 59 58 74 72 82 60 90 98 77 74 86 91 77 72 80 80 96 97 89 48 18 19 36 46 30 26 16 13 11 16 34 38 38 39 38 32 29 41 40 24 24 32 60 78 92 94 90
16 16 50 61 83 100 100 99 100 93 77 67 84 99 70 57 89 91 70 53 25 11 25 23 25 25 25 11 11 12 14 28 38 42 46 46 40 36 28 34 29 28 19 28 51 84 75 79 100
14 14 14 30 59 77 70 61 82 100 100 100 100 87 60 43 73 94 71 65 33 18 15 18 20 21 15 10 14 12 21 37 52 54 63 54 41 42 30 35 26 26 28 22 31 70 70 68 92
12 13 14 16 40 82 76 74 74 56 69 70 78 65 48 59 67 75 76 84 59 22 12 16 14 13 10 15 10 23 34 53 53 54 67 61 48 45 35 36 31 28 31 24 27 34 44 50 46
12 13 17 16 23 38 28 48 87 88 85 82 60 46 43 41 55 65 83 73 76 21 13 12 8 10 16 11 17 37 51 56 48 65 54 57 52 44 32 41 41 35 39 35 32 32 36 41 63
12 14 19 20 18 22 42 56 48 60 78 67 57 46 58 60 48 49 89 88 76 29 11 10 7 16 11 13 21 39 55 48 48 56 39 54 50 45 35 36 56 42 36 40 36 37 36 38 39
7 9 11 16 23 24 25 30 46 30 31 25 29 30 38 40 37 54 60 46 39 17 8 10 11 12 12 17 32 41 43 37 37 32 36 35 37 33 24 27 38 41 43 34 36 38 38 40 38
8 7 8 10 15 19 22 22 20 20 20 21 24 23 21 23 32 36 41 38 17 14 8 8 14 11 16 24 36 42 35 32 43 30 32 24 17 22 24 17 20 26 30 44 37 35 39 39 41
16 12 9 8 9 10 16 16 15 17 20 26 27 37 46 50 50 46 19 19 19 11 11 9 13 14 17 28 38 41 23 25 30 22 17 22 24 22 20 18 14 12 15 21 33 46 44 42 39
7 10 16 14 10 9 9 10 13 12 22 37 34 20 16 11 12 16 26 24 13 12 12 12 14 17 23 32 40 22 20 22 20 18 24 26 26 24 20 19 17 13 13 37 45 31 48 41 34
11 11 9 9 10 11 10 10 10 14 13 9 6 7 8 14 23 27 30 17 14 21 12 13 15 18 30 32 28 18 19 20 20 23 25 26 25 23 19 17 16 15 31 54 39 22 23 29 26
11 12 13 13 11 8 8 8 7 7 8 9 11 11 15 32 46 36 26 14 29 25 9 15 16 21 29 28 18 18 20 21 22 26 28 30 28 28 30 22 27 40 55 64 23 15 18 19 18
13 12 11 13 14 14 13 12 10 10 10 18 15 18 38 56 52 41 20 35 26 20 10 14 15 26 24 18 17 18 20 20 22 29 36 28 29 34 100 31 28 69 35 31 20 14 13 14 16
15 15 12 13 14 14 14 16 12 12 20 23 18 40 66 57 54 38 25 40 20 12 12 15 20 22 17 17 17 18 20 20 20 27 39 30 31 30 71 32 25 29 38 24 22 18 16 19 17
17 14 13 15 14 16 16 16 14 16 32 29 22 44 62 55 53 43 33 38 18 10 15 16 28 18 16 16 18 19 19 21 22 23 27 29 30 30 35 54 33 23 34 43 23 20 19 19 24
18 15 16 20 18 16 18 17 16 17 37 36 25 34 52 45 45 34 32 34 17 11 14 20 29 17 17 16 18 19 20 21 23 25 26 28 30 28 29 59 22 22 36 34 28 23 24 29 34
18 18 20 37 25 20 20 18 17 19 38 34 32 28 34 38 44 39 36 31 25 12 14 28 26 18 18 20 21 18 19 20 22 24 25 29 29 26 39 29 36 23 39 24 25 25 25 26 29
11 15 34 47 41 25 24 22 20 18 34 41 42 35 37 35 42 39 48 31 20 15 15 32 26 18 20 24 29 21 19 18 20 23 26 26 27 26 25 76 49 41 24 31 35 31 27 29 29
9 10 15 47 48 36 29 26 26 21 19 42 39 48 38 41 41 40 41 23 17 18 17 30 25 20 25 23 20 20 18 17 19 21 22 23 24 25 25 76 26 36 24 35 28 28 28 30 31
9 8 8 14 48 48 33 35 28 26 20 27 51 59 44 38 40 28 17 15 19 20 29 37 25 23 23 22 14 15 18 18 19 21 22 22 22 23 23 36 26 28 28 31 39 28 28 29 33
11 9 9 10 15 34 30 40 40 30 28 22 30 40 41 26 53 19 11 14 18 20 29 39 30 30 27 29 30 16 15 18 19 20 21 24 23 22 20 21 23 28 29 29 28 28 28 29 31
12 10 9 9 11 23 57 52 48 43 31 30 22 33 34 10 16 9 11 17 23 23 38 37 34 34 50 33 28 26 16 13 14 17 18 19 19 21 22 22 22 21 24 24 25 26 26 28 28
15 12 10 9 9 15 28 35 53 49 34 33 24 24 25 11 11 8 11 14 21 26 25 36 42 48 62 45 28 20 17 16 12 12 14 16 17 18 19 20 22 22 23 23 22 23 24 26 28
14 14 11 13 11 10 11 22 28 44 28 29 27 24 20 11 12 11 12 15 18 28 33 44 46 59 42 28 25 21 21 23 20 14 14 14 17 17 18 20 20 21 22 24 26 25 24 25 28
15 18 22 15 13 12 13 12 16 25 26 34 30 28 22 12 10 12 7 12 14 24 33 39 51 50 32 27 26 23 24 24 20 20 18 19 21 19 18 18 18 19 21 24 25 25 25 26 28
18 20 15 21 27 26 20 14 15 18 36 40 33 37 27 13 11 14 6 7 9 12 15 14 24 41 32 27 27 28 27 26 27 27 28 32 33 34 33 25 19 18 19 21 23 24 27 28 29
21 20 21 26 42 38 24 18 13 10 20 38 45 43 35 20 11 15 9 9 9 7 7 16 25 44 38 34 32 32 32 36 37 50 56 59 60 64 35 32 27 19 19 20 22 25 27 29 31
22 22 23 22 43 50 29 26 13 12 10 25 45 42 38 28 15 11 11 12 14 12 14 27 32 41 35 34 31 34 37 41 45 52 60 68 98 92 94 32 24 20 20 21 24 27 29 31 32

GFSSGP_250_rhum_033.txt.gz
RH
42 39 39 38 41 60 99 86 98 100 100 100 96 92 65 76 79 71 73 81 65 62 97 44 24 29 53 69 56 23 13 14 38 48 41 34 29 26 37 22 22 32 41 57 44 44 56 67 69
46 42 55 68 64 76 90 89 76 71 98 91 78 59 92 86 66 61 70 59 46 47 42 18 30 38 38 34 23 15 10 24 43 38 35 38 29 33 26 24 22 23 38 67 70 56 64 87 100
54 48 54 54 94 100 92 71 51 50 81 68 77 93 84 99 79 55 74 67 70 68 43 14 24 32 24 21 12 13 14 33 44 40 52 39 30 29 23 23 17 17 36 66 90 92 94 75 57
20 53 70 69 80 70 82 71 63 54 86 100 77 67 80 100 83 53 72 66 64 71 59 13 19 30 18 10 15 11 27 49 47 55 51 38 32 31 23 23 20 16 26 60 87 74 76 100 100
17 21 63 67 78 90 84 100 100 97 97 100 100 100 97 90 65 52 70 56 60 60 83 26 15 15 9 13 10 20 38 58 43 60 45 39 29 30 26 26 23 21 25 39 64 64 64 87 95
20 20 61 37 38 66 72 65 87 89 63 81 73 85 88 75 55 53 58 57 42 57 59 42 10 8 13 10 16 32 62 42 44 44 40 39 24 35 38 28 27 28 25 28 34 42 44 40 36
20 32 43 20 27 20 24 53 82 82 73 74 98 94 84 61 51 53 50 42 43 45 32 25 8 10 12 11 33 59 43 35 43 33 42 38 29 23 38 46 26 26 27 30 30 30 33 36 34
19 24 22 18 14 19 25 28 45 56 63 78 68 66 53 47 38 33 33 27 32 39 28 12 9 16 10 14 46 41 35 31 28 33 35 38 24 20 19 26 26 27 26 28 28 30 33 30 30
13 13 17 17 19 23 23 24 26 26 45 53 63 30 22 23 24 22 23 30 39 41 22 10 10 12 13 22 44 37 28 32 30 32 23 91 28 46 14 12 14 20 31 30 30 36 35 41 32
8 11 68 21 12 14 15 19 23 23 25 23 20 19 19 19 23 26 41 44 36 23 14 11 13 11 18 31 37 31 23 32 26 22 25 26 20 24 14 10 12 19 28 38 45 45 36 35 34
11 14 90 11 11 10 8 12 17 17 19 18 17 15 14 27 36 34 31 14 21 22 10 10 13 14 24 34 34 20 21 23 18 24 34 25 23 41 27 16 33 35 40 42 92 38 31 29 26
10 9 14 13 13 11 9 9 9 10 14 13 12 9 18 29 16 7 9 17 23 13 11 12 12 16 29 35 23 18 19 18 22 22 22 22 24 15 17 32 52 30 23 19 24 18 20 22 25
11 11 11 9 8 11 13 13 20 21 10 10 10 13 10 6 9 15 18 27 16 13 11 14 14 22 35 31 17 18 19 22 22 22 24 25 19 25 46 55 39 19 20 14 15 14 15 15 16
14 12 12 12 12 10 8 7 7 7 7 7 7 10 14 14 21 30 25 21 16 21 11 16 16 29 35 20 18 19 22 23 26 24 26 65 46 26 45 28 25 20 15 14 15 15 13 13 13
12 12 15 14 13 14 14 12 12 10 10 10 11 17 14 20 44 27 33 14 28 29 11 16 17 33 27 16 18 19 21 27 26 24 25 63 69 30 24 26 25 20 18 16 18 16 17 17 16
11 12 13 18 16 15 16 14 15 15 12 12 14 16 14 35 45 35 22 35 28 25 12 18 19 30 19 16 18 18 19 25 31 24 26 29 52 44 26 27 38 26 22 24 22 23 27 29 27
12 14 13 18 21 18 18 18 16 15 14 17 18 16 15 46 43 38 22 39 20 16 15 17 26 26 16 17 18 19 18 19 23 24 23 23 52 43 41 62 44 29 26 26 26 28 30 33 32
15 12 13 16 23 26 21 20 18 18 16 21 22 15 20 37 42 39 31 40 22 10 15 16 31 22 16 17 18 19 19 19 20 22 22 21 23 41 30 24 45 30 40 32 28 28 30 31 35
14 12 14 18 20 30 29 22 20 19 18 21 31 17 22 35 36 40 32 32 31 10 15 16 32 18 16 18 18 18 18 18 20 22 21 21 25 63 51 54 32 40 47 37 30 29 28 30 32
15 13 14 19 19 27 34 29 24 22 20 19 41 23 20 23 35 37 30 30 30 12 17 18 36 18 16 18 18 18 18 18 18 20 20 19 20 39 97 48 35 28 82 33 29 28 31 31 33
12 11 10 12 16 23 23 37 30 25 24 20 31 40 22 20 34 32 30 35 30 15 17 25 32 18 18 25 23 20 17 18 19 20 19 19 19 24 100 32 34 29 39 60 29 28 30 30 30
9 8 8 8 9 12 16 37 36 30 26 28 23 46 41 23 29 32 34 31 29 14 18 31 35 20 20 24 23 20 17 17 18 20 20 21 20 20 52 35 29 30 29 69 52 27 28 28 28
10 9 8 8 8 9 10 16 43 37 32 33 26 30 50 45 30 34 33 35 24 14 19 38 38 20 24 22 15 14 16 17 18 19 20 21 42 20 19 20 49 22 19 30 25 28 24 26 28
10 10 9 9 10 9 10 13 36 42 41 33 34 23 29 42 23 27 28 36 21 16 18 36 38 20 23 26 20 17 13 14 14 16 18 19 19 19 20 22 28 35 22 21 22 25 26 25 27
11 11 10 10 11 13 12 12 46 49 47 39 39 30 23 29 27 14 30 19 18 16 17 33 35 22 27 26 28 28 22 15 13 14 14 16 17 17 18 19 37 22 21 22 22 24 25 26 26
13 11 10 13 12 13 11 9 12 25 50 44 43 32 30 24 22 10 9 10 11 14 16 31 42 32 39 45 39 34 36 22 19 17 14 13 14 17 18 19 19 19 20 22 24 25 25 27 27
14 12 19 13 14 15 14 11 10 10 33 35 44 34 38 26 21 10 9 12 10 17 18 45 45 41 49 72 61 44 24 23 22 24 20 15 17 21 25 24 23 20 18 18 19 20 24 26 28
12 19 10 13 19 20 18 16 12 9 19 28 36 41 41 35 22 11 10 14 12 15 15 40 58 61 87 82 57 33 26 23 28 28 22 27 31 27 26 37 35 30 24 18 18 21 25 26 28
15 12 14 21 27 28 32 21 11 9 10 23 42 48 46 39 28 15 10 14 14 13 16 30 52 57 56 60 37 30 28 27 28 27 31 35 46 53 64 88 98 77 32 29 23 26 30 28 27
16 14 18 26 39 48 49 20 16 10 10 12 30 47 47 44 37 24 11 11 13 11 9 15 24 39 36 44 41 29 27 26 26 32 35 50 58 62 69 66 43 62 82 38 32 33 40 30 29

GFSSGP_250_rhum_036.txt.gz
RH
38 35 34 53 41 48 100 100 94 100 100 100 100 100 93 46 62 81 79 69 50 64 56 68 42 22 30 38 23 14 14 35 39 39 40 30 26 22 20 20 26 50 56 50 54 58 63 79 73
42 37 56 55 100 84 100 100 79 86 99 91 92 80 62 55 68 86 94 75 60 59 49 56 62 33 28 32 10 14 24 38 50 47 40 32 26 21 20 13 20 36 61 53 49 51 71 78 88
50 44 62 74 72 100 98 64 76 74 64 56 90 92 66 68 59 100 96 64 56 57 38 39 43 38 16 10 13 11 37 45 45 38 37 31 27 18 20 13 18 34 64 82 76 56 79 84 83
28 31 28 44 60 62 95 90 100 97 69 65 73 100 91 98 97 94 68 57 48 44 36 34 31 25 8 11 11 21 43 45 34 31 36 30 29 22 21 18 18 36 65 86 79 89 97 100 100
17 27 38 45 93 76 59 72 71 65 83 100 98 85 80 81 85 81 68 54 46 36 46 32 28 16 10 12 16 34 48 33 28 29 33 24 34 36 24 23 23 28 44 52 65 56 52 57 51
24 90 99 90 100 100 28 39 58 67 100 100 100 85 68 94 90 80 64 47 36 28 24 32 29 10 14 12 27 53 36 27 20 22 26 19 17 33 29 23 24 24 28 37 37 36 31 29 30
37 100 100 99 100 99 38 44 52 69 65 78 82 85 63 88 64 41 29 27 26 26 31 37 25 12 11 18 48 44 31 21 20 21 27 18 14 15 29 29 24 24 27 28 29 29 31 33 31
14 100 100 100 99 56 18 18 24 25 26 58 68 52 70 67 48 30 20 24 29 29 34 31 13 15 12 35 42 31 19 19 23 77 97 93 22 10 12 19 25 28 27 27 28 33 27 30 31
13 59 96 66 36 16 15 18 25 24 26 28 28 26 34 26 20 18 16 23 32 40 24 23 11 13 15 33 32 23 19 21 67 93 100 79 76 15 17 20 28 32 43 36 30 30 25 26 35
14 15 18 20 23 21 17 15 14 17 20 21 25 24 20 19 18 13 12 29 35 13 23 14 13 11 21 30 29 16 17 21 99 100 100 58 32 28 25 25 32 59 98 100 76 22 56 24 25
8 9 13 20 66 100 100 34 11 11 10 11 17 19 17 17 13 10 16 27 11 17 22 11 15 14 26 30 19 14 15 38 90 96 87 100 67 97 14 18 20 82 100 84 37 17 18 18 19
8 9 11 14 50 74 46 10 10 20 11 11 11 10 11 9 9 12 17 9 17 24 12 10 13 19 31 27 15 13 17 20 41 52 95 96 77 66 24 37 40 55 35 15 13 13 15 16 18
8 8 10 15 20 20 10 48 99 75 14 13 17 12 8 7 9 11 15 17 28 15 12 14 14 21 32 20 15 15 16 16 16 27 86 57 46 24 16 24 39 19 27 30 17 16 20 15 16
9 9 9 10 10 9 10 12 48 10 7 7 7 8 10 13 16 15 22 29 24 13 12 15 18 28 30 17 17 17 18 17 41 32 24 34 27 26 20 18 19 18 19 21 22 26 19 16 18
10 9 10 10 11 12 11 11 11 13 12 11 11 12 12 14 14 17 29 31 16 19 12 16 21 34 23 17 19 21 22 20 46 44 24 21 34 31 25 28 26 23 26 27 22 23 23 24 26
10 10 10 11 14 15 14 15 13 14 14 13 13 14 12 13 14 23 39 15 28 28 11 16 22 32 18 18 18 22 24 21 23 48 35 26 33 37 28 44 25 27 27 30 32 31 27 26 28
12 13 12 12 15 17 18 16 16 16 16 15 14 16 14 11 17 33 37 26 26 26 11 16 23 31 17 18 17 20 23 20 20 38 40 33 63 82 47 35 42 32 25 27 29 30 32 31 33
12 11 10 12 17 18 20 22 19 16 17 17 16 17 16 12 23 30 28 31 21 19 13 17 26 26 16 18 16 16 18 19 18 20 27 27 20 42 44 35 44 33 26 27 28 31 31 31 30
12 12 12 14 16 19 22 25 25 20 20 28 16 19 20 13 20 29 30 29 20 12 13 16 31 27 16 18 17 17 17 20 20 19 22 40 32 34 60 57 79 54 31 31 28 34 31 31 31
18 17 16 17 15 19 24 36 27 26 21 19 18 22 27 17 20 28 38 30 28 12 14 16 32 27 16 18 17 17 17 18 18 18 19 21 68 67 35 45 40 67 59 51 31 28 35 29 29
24 22 20 17 16 14 22 21 30 31 26 22 22 17 34 25 19 22 35 32 26 15 13 18 33 21 16 19 19 18 17 16 17 17 17 19 32 83 74 36 61 65 85 100 37 27 26 27 28
24 20 18 17 18 16 14 16 29 37 31 28 23 19 28 34 26 18 28 36 26 27 15 19 36 20 16 18 20 19 17 17 18 19 19 20 21 40 49 31 26 35 46 42 34 25 26 24 26
26 22 16 12 11 13 11 11 19 36 37 34 30 22 19 45 34 24 22 41 35 29 13 22 38 20 17 17 30 22 17 17 19 20 21 26 24 22 23 24 42 35 30 49 33 30 20 21 23
28 22 14 13 10 9 8 8 10 24 39 38 32 29 21 24 46 34 29 37 40 31 14 22 40 22 19 20 24 20 17 17 18 18 20 20 20 20 20 26 41 43 30 26 30 31 24 25 26
26 20 14 11 10 10 9 7 10 15 42 42 35 35 26 23 26 41 30 36 38 36 16 17 38 24 20 23 20 14 14 14 16 18 17 16 17 17 18 19 28 20 26 27 21 22 24 26 27
37 24 19 16 12 10 9 8 7 7 11 26 35 38 32 28 23 29 26 22 28 33 27 12 30 29 20 23 24 22 22 18 16 15 14 13 14 16 17 18 22 19 19 19 19 19 20 22 26
29 25 21 19 17 12 9 9 8 7 7 11 21 37 40 37 29 22 27 10 23 16 20 14 28 40 21 23 31 32 31 28 24 18 18 16 15 17 17 19 19 26 26 26 19 19 25 32 32
33 23 21 17 16 13 12 12 10 8 8 11 19 35 45 41 35 30 23 13 8 10 15 16 29 49 29 28 33 37 38 38 36 23 22 24 19 18 18 27 55 88 74 75 47 32 36 35 39
28 25 19 15 14 17 17 16 13 9 8 9 17 33 48 47 40 34 29 18 9 9 14 19 24 42 46 42 64 60 52 52 29 24 27 26 20 24 23 54 78 82 44 37 55 88 50 54 53
23 21 18 16 21 31 29 20 15 12 9 9 12 25 49 51 51 39 37 23 11 11 11 22 21 38 44 58 77 78 67 43 27 26 28 26 28 31 47 59 50 50 39 34 36 54 73 52 36

GFSSGP_250_rhum_042.txt.gz
RH
33 26 27 23 28 61 100 90 79 100 87 71 65 100 96 93 98 100 95 88 85 74 43 26 28 35 26 14 14 21 41 36 35 27 29 22 17 18 17 42 64 38 48 55 58 99 100 92 97
30 35 29 26 59 95 100 100 78 100 100 97 100 98 88 81 100 100 100 90 75 52 36 23 31 28 19 15 14 36 45 39 27 32 26 27 16 15 18 46 65 60 48 58 56 64 71 99 81
24 26 39 100 100 64 100 100 98 91 92 100 96 94 74 74 100 93 85 74 53 48 27 21 32 22 14 14 28 46 41 28 32 24 28 32 17 17 30 56 72 63 62 62 55 56 69 82 67
34 39 97 62 92 47 98 100 98 83 100 100 85 64 57 77 92 66 55 47 36 28 19 22 25 20 14 17 33 45 30 29 27 21 28 24 21 20 38 55 68 75 68 62 72 89 88 82 72
37 43 63 66 82 58 98 86 100 87 100 100 52 38 35 39 45 29 35 25 23 22 18 18 18 14 14 19 31 34 23 46 32 17 26 33 24 31 50 63 81 82 80 62 45 45 41 36 30
30 44 61 100 65 96 100 85 93 100 94 74 78 63 47 36 30 26 21 22 20 21 17 17 14 13 14 21 40 26 77 74 49 15 20 38 29 34 39 40 42 47 39 28 26 24 27 29 44
19 80 52 75 87 69 100 100 100 100 100 99 63 31 22 45 43 24 21 15 18 19 14 16 18 14 14 32 32 21 84 75 51 32 18 23 39 31 29 30 31 33 30 28 24 24 40 48 56
19 55 100 93 88 100 87 75 99 99 100 91 40 79 65 37 17 13 12 16 15 14 17 12 16 13 15 34 27 42 75 85 87 42 32 28 31 30 64 91 83 31 35 24 23 17 34 21 57
22 22 42 89 94 100 100 73 83 99 99 44 21 73 55 16 12 10 12 11 11 12 12 15 13 12 24 34 20 84 70 97 92 95 39 27 35 68 96 100 54 34 35 21 25 16 18 60 64
22 21 25 96 85 73 98 88 100 100 68 16 41 76 25 26 20 11 11 12 9 12 13 20 13 15 32 27 34 86 83 69 77 54 38 35 60 18 15 17 19 18 17 17 15 13 15 17 20
33 22 41 82 100 100 100 70 94 91 17 20 62 29 54 34 15 14 11 10 15 15 18 15 13 24 34 19 32 78 90 76 84 58 49 65 25 22 20 22 20 17 15 14 13 15 42 29 22
15 16 21 32 47 63 42 38 29 20 13 11 27 26 8 12 11 10 12 16 18 24 24 13 15 31 22 17 57 82 59 92 96 41 27 44 43 31 28 21 19 22 21 26 28 37 47 37 39
9 10 12 12 12 13 11 13 11 10 11 12 41 12 9 10 10 12 16 17 25 31 16 13 22 27 18 22 51 99 87 80 55 35 29 43 39 33 32 25 27 25 26 31 35 37 43 51 53
8 7 7 7 7 7 10 8 8 15 10 12 22 38 10 10 12 12 11 19 32 21 13 13 26 20 18 20 29 77 98 74 46 29 32 33 32 37 33 26 26 29 28 29 35 35 44 49 47
9 10 9 8 8 11 10 10 12 9 8 13 21 44 12 8 10 10 11 22 27 15 12 14 23 18 18 18 25 46 51 56 78 44 50 56 56 35 39 35 27 34 34 30 32 35 36 45 45
10 11 10 9 9 9 10 10 9 9 10 13 23 63 62 10 9 9 9 20 18 13 14 16 20 18 18 18 30 31 32 35 30 42 87 62 29 25 27 28 25 30 27 30 38 40 38 43 49
13 12 11 10 9 9 9 12 11 11 12 10 56 89 94 39 22 9 10 14 15 17 14 19 18 18 19 18 29 30 28 31 26 44 99 44 28 26 30 26 27 24 27 25 28 36 37 40 41
11 12 10 9 10 10 10 11 12 10 12 10 71 54 100 93 20 10 9 13 20 27 13 21 16 19 20 20 27 36 21 31 35 64 76 49 44 48 35 26 24 25 32 26 28 30 33 36 36
10 10 11 11 11 12 11 12 19 12 11 12 36 46 87 100 64 16 12 12 20 25 14 17 16 18 21 22 20 29 33 34 52 74 49 37 49 54 52 39 40 28 24 24 26 28 28 32 32
14 12 13 12 13 13 14 12 14 13 12 13 13 65 87 98 81 19 21 11 17 21 17 15 17 16 19 20 20 20 26 29 28 28 33 58 64 60 59 76 80 51 26 22 23 26 29 32 33
17 16 15 14 11 14 12 12 13 13 11 11 11 17 95 90 98 30 19 17 19 15 13 15 18 15 18 18 19 20 22 22 29 43 48 60 45 52 51 42 45 34 27 20 21 21 23 28 31
18 20 17 14 12 12 12 11 12 15 13 14 12 15 74 88 98 30 9 19 24 16 11 16 23 14 16 18 19 19 21 22 22 23 33 68 74 39 31 29 40 42 34 29 25 27 26 27 27
20 18 18 16 13 12 11 11 14 15 16 18 16 16 15 81 99 52 16 16 16 22 14 14 21 17 16 17 18 18 19 21 22 22 21 27 81 43 30 38 29 32 24 23 24 25 27 27 25
19 17 17 15 12 11 12 13 13 18 21 20 18 16 16 15 17 21 33 12 16 26 25 14 15 21 16 16 18 19 18 18 20 22 21 21 21 27 29 39 39 25 26 25 20 20 24 29 34
17 16 15 13 12 12 17 15 20 20 22 20 20 17 16 17 17 17 24 27 14 29 29 21 15 18 16 16 18 18 18 18 19 21 21 20 27 20 23 38 28 21 22 20 19 21 20 20 23
19 18 18 21 21 24 24 15 24 21 20 21 20 14 15 16 20 18 20 47 18 27 33 28 21 16 22 16 18 18 18 17 19 20 20 30 22 18 18 17 18 19 19 25 35 50 50 44 43
24 19 28 26 22 25 18 22 19 14 14 16 19 13 13 18 22 20 25 44 28 24 28 45 26 18 24 17 18 22 26 18 17 18 18 19 18 16 16 16 18 20 30 54 44 41 43 42 35
26 29 26 26 23 20 23 28 24 15 14 20 16 10 13 15 18 28 22 19 26 31 29 36 41 24 21 24 17 19 24 21 17 16 16 14 13 12 12 13 15 22 58 92 50 36 30 24 22
23 21 20 23 25 26 29 29 22 14 16 19 11 10 10 9 19 32 26 26 23 28 25 34 46 25 23 29 19 17 21 20 14 14 14 15 15 17 21 19 17 28 59 78 54 45 38 26 29
25 27 24 22 27 30 30 26 21 16 27 16 13 10 10 10 9 18 27 29 32 23 25 27 47 29 22 26 26 18 20 22 14 21 26 29 26 20 25 26 21 30 46 52 53 46 41 32 32

GFSSGP_250_rhum_045.txt.gz
RH
28 27 25 22 26 36 67 39 89 87 87 87 80 79 94 99 85 93 75 44 51 42 36 22 25 21 15 14 24 44 61 37 36 36 22 31 23 24 34 65 34 41 53 50 58 70 80 76 99
29 34 28 36 30 68 59 74 100 94 100 100 100 100 100 88 49 46 51 30 34 27 26 20 22 18 14 14 36 55 35 34 26 26 20 20 16 22 48 66 44 46 56 82 87 95 63 63 87
42 35 47 86 88 96 96 99 96 96 100 97 100 100 81 52 40 34 28 28 25 26 25 19 19 15 14 19 44 38 38 25 19 24 17 24 20 35 60 70 68 60 57 65 58 68 69 66 62
34 30 94 100 100 98 100 100 89 100 86 74 100 100 100 85 48 31 43 34 25 21 24 17 15 13 14 34 38 35 51 40 13 20 27 19 27 54 74 75 78 69 63 54 56 52 55 62 59
33 28 69 100 97 62 92 81 93 100 100 100 100 100 95 54 46 50 39 25 18 20 18 17 14 14 19 42 30 86 85 45 13 33 30 24 31 47 76 88 91 76 60 53 44 49 48 71 63
28 34 50 84 72 55 97 100 100 97 100 92 100 100 86 55 50 54 16 11 14 18 14 16 15 13 31 38 29 92 71 45 19 26 37 30 34 34 38 48 57 43 31 31 36 57 78 75 72
29 40 51 57 58 59 56 99 100 95 100 100 100 100 76 30 47 39 16 10 11 12 15 15 14 15 31 28 51 90 98 84 32 26 35 31 29 34 44 30 31 29 29 22 41 45 57 69 58
24 28 50 55 82 100 97 63 43 100 100 100 100 100 58 16 47 28 23 11 12 12 13 16 14 20 33 23 76 99 73 86 70 36 30 33 52 90 95 32 40 23 22 23 24 98 71 36 45
20 26 90 44 81 74 66 100 79 99 100 100 100 95 22 17 29 53 26 13 13 11 14 16 15 29 27 28 86 81 67 63 39 36 52 60 66 75 37 31 24 22 35 20 33 46 33 29 31
23 24 33 93 99 99 94 96 97 92 100 94 100 87 20 18 15 16 14 12 11 14 15 15 16 31 19 48 86 70 58 55 46 46 40 18 22 22 18 17 16 17 17 21 20 22 26 44 51
21 24 24 23 34 98 93 99 98 100 99 78 88 53 10 12 8 10 10 12 14 14 17 15 25 25 19 52 96 85 68 56 57 27 28 25 19 19 16 15 13 23 43 36 36 45 52 62 76
20 21 22 22 26 33 92 100 98 100 93 94 28 11 15 13 10 10 10 12 13 19 15 17 33 16 21 53 90 70 80 31 41 38 33 24 23 26 27 29 30 36 42 42 50 51 57 58 65
18 21 21 19 18 22 34 72 95 82 54 13 11 9 12 16 8 8 12 10 21 21 14 24 27 16 28 75 74 78 50 30 41 49 32 30 25 30 28 28 32 38 42 50 51 54 53 56 60
17 19 19 18 14 14 14 16 12 12 10 10 9 8 17 41 15 11 10 15 23 13 15 29 18 18 28 75 93 94 45 30 33 33 33 33 30 28 28 30 28 35 38 38 42 48 49 55 47
8 9 9 8 8 7 7 7 8 10 11 10 8 9 23 89 49 43 11 22 14 12 18 26 16 20 26 58 90 94 54 29 39 40 45 38 36 29 30 35 38 31 35 38 42 40 42 45 40
12 12 9 10 10 9 8 9 9 10 8 9 9 11 28 74 88 20 13 20 12 12 18 22 16 20 23 37 71 57 76 50 58 54 26 29 34 33 29 28 31 38 35 34 36 38 34 38 38
14 14 10 10 10 9 9 10 10 8 9 10 9 12 47 61 74 50 13 17 12 13 17 22 16 18 20 28 44 41 36 58 82 30 24 27 28 27 28 33 35 41 34 32 31 36 36 33 35
12 13 11 11 10 10 10 9 9 9 9 11 11 12 30 60 49 46 10 16 17 13 16 25 17 17 22 27 33 37 28 59 100 33 34 41 36 29 26 29 30 26 28 28 28 31 35 38 34
11 11 12 8 10 13 11 11 10 10 10 10 10 10 12 34 69 65 16 14 24 18 15 25 17 16 18 28 32 34 31 45 89 45 44 52 38 34 42 35 25 23 29 26 23 30 33 36 38
13 12 13 10 11 12 14 13 15 10 10 10 11 11 12 50 73 47 39 12 24 24 14 22 18 17 19 25 34 28 35 40 55 43 46 57 71 62 72 61 53 24 24 23 24 27 30 32 36
10 14 14 13 10 12 12 13 14 12 10 10 9 10 13 13 60 79 33 10 18 22 13 16 19 16 18 19 26 33 32 42 54 64 65 89 77 69 75 50 36 51 23 21 23 25 29 28 30
11 17 14 10 8 11 12 12 12 12 10 9 10 11 14 16 57 49 56 13 17 23 14 15 23 16 17 18 19 22 27 30 34 40 62 73 75 57 38 39 39 32 40 24 24 24 28 28 26
21 16 13 10 8 9 10 11 12 13 14 11 11 12 12 18 20 94 53 52 16 23 13 12 16 18 17 17 17 18 22 22 28 35 59 64 72 42 31 29 41 30 28 26 24 26 27 29 32
18 13 13 10 7 7 11 12 13 15 28 12 13 12 11 14 18 35 62 49 26 22 20 11 13 21 16 15 15 17 20 21 21 22 22 33 78 49 33 39 32 28 25 20 20 22 22 23 27
11 10 10 9 6 11 12 14 16 25 27 20 15 14 12 14 17 17 16 18 20 16 30 13 12 16 19 15 15 16 17 18 21 21 20 21 26 30 28 38 30 23 23 19 19 19 21 26 32
13 13 13 15 14 16 16 14 18 22 19 20 14 12 14 17 19 17 18 18 18 20 28 29 14 14 23 18 16 15 16 17 18 18 19 20 20 21 22 27 26 21 22 22 24 32 34 40 34
20 13 14 15 16 16 16 14 22 15 16 16 15 11 14 19 20 17 17 17 17 33 24 29 27 18 19 26 18 16 17 18 17 19 20 21 31 25 18 18 18 19 22 28 53 41 38 32 27
22 27 21 16 16 14 17 15 23 15 16 15 16 16 15 17 20 14 15 19 19 49 33 30 30 25 20 18 24 18 17 19 18 18 20 22 25 20 18 16 16 18 22 27 73 68 40 38 39
23 19 21 19 18 17 18 17 25 19 18 16 15 19 16 16 19 13 15 16 20 37 45 28 32 29 25 20 19 25 17 20 24 19 19 19 18 17 15 13 13 14 15 16 38 71 55 48 41
23 20 23 24 22 20 18 18 34 22 15 17 17 21 20 21 18 10 11 15 19 25 27 37 36 35 31 25 18 22 21 18 25 22 18 18 16 14 15 18 21 21 16 17 20 28 40 42 38

GFSSGP_250_rhum_048.txt.gz
RH
24 25 23 25 28 31 56 49 54 95 90 100 96 100 99 100 86 61 33 37 39 28 21 25 19 16 14 30 40 38 42 28 21 22 39 43 65 88 51 79 35 66 62 75 76 78 76 81 91
24 27 27 28 30 45 36 43 39 73 84 87 100 91 99 100 91 62 58 47 24 19 19 20 18 15 19 40 38 49 37 33 27 38 62 43 72 77 64 48 45 100 100 100 100 92 84 83 82
28 29 36 45 49 68 48 92 100 94 100 97 95 100 100 100 85 65 51 39 23 12 16 15 15 15 33 36 51 69 62 24 30 37 23 30 42 63 63 62 59 96 84 71 52 56 64 73 80
30 34 41 69 68 58 71 100 100 96 100 97 100 100 100 100 85 47 39 33 22 11 12 14 14 19 33 30 92 88 52 52 34 43 29 43 42 52 65 68 74 64 60 52 51 52 58 64 66
42 39 57 80 92 68 92 100 100 100 100 100 94 99 96 100 82 37 23 28 22 10 10 14 13 24 26 50 69 49 32 35 36 37 22 26 38 43 58 60 56 53 45 44 61 100 86 71 56
47 39 39 99 100 81 86 97 100 100 100 89 100 100 100 97 96 42 25 36 27 11 10 13 12 22 33 64 86 92 38 28 35 32 26 28 35 35 37 44 41 33 37 45 46 63 66 81 79
39 34 33 42 67 73 69 86 100 100 100 100 100 100 100 100 94 50 16 49 34 11 11 13 12 21 44 56 65 61 44 34 32 41 33 44 58 33 24 26 26 35 51 76 65 40 54 65 23
35 30 34 41 59 51 66 60 100 100 100 100 82 93 100 100 82 24 10 27 14 10 12 13 12 19 45 46 61 52 29 34 47 48 68 86 96 44 70 50 25 44 65 51 37 34 28 32 42
24 25 27 34 59 66 38 95 100 100 100 95 77 73 90 96 67 14 9 13 11 12 14 13 16 18 43 48 62 48 33 40 44 23 35 35 24 24 24 27 19 65 36 45 57 53 51 52 62
20 22 28 50 52 70 51 44 80 99 100 90 84 99 99 100 21 15 9 10 14 16 15 13 22 17 52 42 60 47 42 25 19 17 16 16 15 15 30 35 24 38 50 57 70 68 55 62 50
20 22 22 54 89 96 78 41 62 58 73 100 100 100 82 30 10 10 8 10 13 16 18 16 27 18 67 40 62 42 25 25 22 24 23 20 15 29 38 39 49 50 54 58 57 55 54 48 58
18 21 25 24 54 72 60 60 67 96 100 88 100 97 73 13 16 16 15 10 12 20 15 25 23 25 63 55 53 34 32 29 23 26 29 29 29 33 38 39 50 54 54 54 52 49 49 44 46
16 17 20 19 23 25 25 26 42 79 75 64 52 50 14 8 44 47 37 10 19 17 17 30 16 32 65 51 42 26 38 33 26 26 28 28 28 32 38 42 45 49 47 48 54 45 45 42 45
13 16 21 22 21 22 25 22 25 26 20 22 17 8 8 11 45 50 30 13 18 14 17 24 16 42 55 53 40 27 38 34 30 29 30 28 33 29 38 41 40 41 43 43 45 42 39 39 38
10 11 16 21 20 16 20 19 17 13 11 12 8 8 9 14 36 50 47 17 13 14 20 18 17 39 68 68 55 28 32 33 42 36 32 29 29 35 32 33 37 39 41 38 40 38 35 33 35
10 9 10 11 15 17 18 16 13 9 7 8 8 10 9 12 57 41 24 14 12 15 25 16 19 37 76 93 70 28 38 45 30 34 32 24 24 27 33 33 34 37 49 39 40 38 37 34 32
17 11 8 8 8 8 9 8 7 8 8 8 9 12 9 28 46 39 14 12 12 13 27 17 20 34 63 80 65 56 44 45 23 28 26 25 27 42 41 34 27 29 31 34 38 38 38 34 32
16 10 9 9 8 7 8 8 8 8 8 9 10 9 10 15 28 51 30 11 12 12 22 19 18 22 35 59 47 58 52 35 23 28 36 27 26 32 28 34 38 26 27 31 33 35 34 31 31
13 13 11 9 10 9 8 8 8 8 9 9 9 9 10 13 57 47 43 15 14 11 14 19 17 20 28 38 35 39 73 44 29 40 36 29 35 38 24 25 30 26 28 30 31 32 34 32 30
14 14 13 12 12 10 9 9 9 9 9 10 10 10 10 12 18 58 44 23 16 14 12 20 17 18 24 31 35 30 68 77 38 47 44 47 52 58 53 49 25 25 24 25 27 29 29 30 28
13 16 16 12 12 12 11 10 11 10 11 11 9 10 10 12 13 41 60 28 15 20 11 14 16 16 19 30 31 31 34 68 60 43 45 65 65 78 54 41 51 27 23 26 28 28 23 23 25
12 17 15 10 10 13 12 12 12 11 10 11 11 11 11 15 13 22 43 51 12 18 17 10 16 16 18 25 32 30 34 46 60 57 52 65 56 52 40 39 36 33 27 27 27 26 27 33 40
15 15 12 10 9 10 12 13 13 13 12 10 10 10 10 13 14 12 47 47 27 30 19 12 12 15 16 21 23 32 32 35 36 33 44 53 52 46 32 37 33 35 40 26 25 25 28 29 29
14 12 11 9 8 8 12 15 14 15 15 10 11 11 11 11 14 15 14 52 58 48 22 16 11 13 15 19 20 20 25 24 24 28 34 51 57 46 32 30 30 27 24 23 24 21 21 26 41
10 11 10 9 7 11 12 14 21 24 18 14 12 11 11 11 12 16 15 16 23 40 22 20 12 11 15 16 18 17 17 18 20 20 19 20 34 60 35 40 34 26 26 21 20 21 28 40 31
11 11 10 10 9 13 13 11 28 34 25 14 12 11 11 12 13 16 18 17 16 15 24 22 20 11 16 17 18 17 17 17 19 20 20 20 21 28 30 37 42 24 20 18 19 29 41 38 31
11 9 10 10 11 14 13 12 23 34 19 14 13 13 12 12 12 11 16 17 17 14 17 24 22 17 13 18 20 19 18 17 18 18 19 20 22 21 25 25 26 22 19 18 21 48 47 37 41
10 13 10 9 10 11 11 14 20 33 20 16 16 15 13 12 12 12 17 19 17 15 14 27 27 23 15 13 22 22 18 19 20 19 18 20 22 22 28 21 19 18 18 17 18 27 67 65 54
16 10 10 9 10 12 13 14 23 33 23 19 19 17 14 13 14 14 14 20 18 14 17 19 39 26 27 17 17 26 24 19 20 19 19 19 20 23 35 22 18 15 14 15 16 18 31 64 45
22 15 14 12 11 11 12 17 23 30 22 21 20 17 15 14 15 14 15 15 21 14 15 20 53 35 30 29 21 18 29 28 19 20 20 19 20 22 23 20 17 13 15 20 21 17 20 29 34